Weather History for Harrison, AR

Change the Weather History Date:

Thursday, February 6, 2014

  Actual Average Record
Temperature  
Mean Temperature 12 °F 39 °F  
Max Temperature 18 °F 49 °F 72 °F (1904)
Min Temperature 5 °F 28 °F -7 °F (1959)
Degree Days  
Heating Degree Days 53 26  
Month to date heating degree days 249 161  
Since 1 July heating degree days 2932 2647  
Cooling Degree Days 0 0  
Month to date cooling degree days 0 0  
Year to date cooling degree days 0 0  
Moisture  
Dew Point 0 °F    
Average Humidity 65    
Maximum Humidity 80    
Minimum Humidity 49    
Precipitation  
Precipitation 0.03 in 0.09 in 1.49 in (1999)
Month to date precipitation 0.89 0.52  
Year to date precipitation 1.92 3.08  
Snow  
Snow T in 0.10 in 6.50 in (2002)
Month to date snowfall 5.8 1.0  
Since 1 July snowfall 15.8 7.0  
Snow Depth 0.00 in    
Sea Level Pressure  
Sea Level Pressure 30.55 in    
Wind  
Wind Speed 5 mph (NNW)    
Max Wind Speed 13 mph    
Max Gust Speed 17 mph    
Visibility 10 miles    
Events Snow    
T = Trace of Precipitation, MM = Missing Value Source: NWS Daily Summary

Daily Weather History Graph

Daily Weather History Graph

Search for Another Location

Airport:

Trip Planner

Search our weather history database for the weather conditions in past years. The results will help you decide how hot, cold, wet, or windy it might be!

Date:

Astronomy

Feb. 06, 2014 Rise Set
Actual Time 7:09 AM CST 5:44 PM CST
Civil Twilight 6:42 AM CST 6:11 PM CST
Nautical Twilight 6:12 AM CST 6:41 PM CST
Astronomical Twilight 5:42 AM CST 7:11 PM CST
Moon 11:17 AM CST (2/6) 12:25 AM CST (2/6)
Length of Visible Light 11h 28m
Length of Day
10h 35m
Waxing Crescent, 49% of the Moon is Illuminated
Feb 6
Waxing Crescent
Feb 6
First Quarter
Feb 14
Full
Feb 22
Last Quarter
Mar 1
New

Hourly Weather History & Observations

Time (CST) Temp. Windchill Dew Point Humidity Pressure Visibility Wind Dir Wind Speed Gust Speed Precip Events Conditions
12:53 AM 7.0 °F -4.5 °F 1.0 °F 77% 30.57 in 10.0 mi NW 6.9 mph - N/A   Clear
1:53 AM 6.1 °F -5.6 °F -0.0 °F 76% 30.58 in 10.0 mi NW 6.9 mph - N/A   Clear
2:53 AM 6.1 °F -8.7 °F -0.0 °F 76% 30.58 in 10.0 mi NW 10.4 mph - N/A   Clear
3:53 AM 6.1 °F -5.6 °F -0.9 °F 73% 30.58 in 10.0 mi NW 6.9 mph - N/A   Mostly Cloudy
4:53 AM 5.0 °F -4.1 °F -2.0 °F 73% 30.58 in 10.0 mi NNW 4.6 mph - N/A   Mostly Cloudy
5:53 AM 5.0 °F -6.9 °F -2.0 °F 73% 30.61 in 10.0 mi NNW 6.9 mph - N/A   Mostly Cloudy
6:53 AM 6.1 °F -7.8 °F -2.0 °F 69% 30.63 in 10.0 mi NW 9.2 mph - N/A   Overcast
7:53 AM 6.1 °F -5.6 °F -2.0 °F 69% 30.63 in 10.0 mi North 6.9 mph - N/A   Overcast
8:53 AM 7.0 °F -5.7 °F -0.9 °F 70% 30.62 in 9.0 mi North 8.1 mph - 0.01 in Snow Light Snow
9:53 AM 10.0 °F -0.9 °F -0.9 °F 61% 30.61 in 10.0 mi North 6.9 mph - 0.00 in   Overcast
10:53 AM 12.0 °F 4.1 °F 1.0 °F 61% 30.61 in 10.0 mi North 4.6 mph - 0.02 in   Scattered Clouds
11:53 AM 12.0 °F 2.7 °F 1.0 °F 61% 30.58 in 6.0 mi North 5.8 mph - 0.00 in Snow Light Snow
12:53 PM 14.0 °F 8.2 °F 3.0 °F 62% 30.55 in 8.0 mi NNW 3.5 mph - 0.00 in Snow Light Snow
1:53 PM 15.1 °F 7.7 °F 3.9 °F 61% 30.53 in 4.0 mi Variable 4.6 mph - 0.00 in Snow Light Snow
2:53 PM 16.0 °F 5.3 °F 5.0 °F 62% 30.53 in 10.0 mi WNW 8.1 mph - 0.00 in   Overcast
3:53 PM 17.1 °F - 3.9 °F 56% 30.51 in 10.0 mi Calm Calm - N/A   Scattered Clouds
4:53 PM 18.0 °F - 1.9 °F 50% 30.49 in 10.0 mi Calm Calm - N/A   Clear
5:53 PM 15.1 °F 9.4 °F 1.9 °F 56% 30.49 in 10.0 mi NW 3.5 mph - N/A   Clear
6:53 PM 14.0 °F - 1.0 °F 56% 30.49 in 10.0 mi Calm Calm - N/A   Clear
7:53 PM 12.0 °F - -0.0 °F 59% 30.51 in 10.0 mi Calm Calm - N/A   Clear
8:53 PM 9.0 °F 0.6 °F -0.0 °F 67% 30.51 in 10.0 mi NNW 4.6 mph - N/A   Clear
9:53 PM 10.0 °F 1.8 °F -0.9 °F 61% 30.49 in 10.0 mi NNW 4.6 mph - N/A   Clear
10:53 PM 8.1 °F 1.4 °F -0.0 °F 70% 30.49 in 10.0 mi WNW 3.5 mph - N/A   Clear
11:53 PM 7.0 °F - -2.0 °F 67% 30.47 in 10.0 mi Calm Calm - N/A   Clear